This is the latest recevied weather packets stored in our database for station/object KF0TNT. If no packets are shown the sender has not sent any weather packets the latest 1 day(s).
| Time | Temp. | Humidity | Pressure | Rain* | Wind** | Luminosity | Snow |
|---|---|---|---|---|---|---|---|
| 1778000569 | 0.56° C | 94% | 1014.6 hPa | 0 mm | 2.24 m/s, 0° | 67 W/m² | - |
| 1778000264 | 1.11° C | 94% | 1015 hPa | 0.51 mm | 2.24 m/s, 21° | 69 W/m² | - |
| 1777999961 | 0.56° C | 94% | 1014.9 hPa | 0.51 mm | 1.79 m/s, 355° | 69 W/m² | - |
| 1777999656 | 0.56° C | 94% | 1014.8 hPa | 0 mm | 4.02 m/s, 40° | 67 W/m² | - |
| 1777999354 | 0.56° C | 94% | 1014.8 hPa | 0 mm | 1.79 m/s, 7° | 62 W/m² | - |
| 1777999052 | 0.56° C | 95% | 1015 hPa | 0 mm | 2.68 m/s, 344° | 60 W/m² | - |
| 1777998750 | 0.56° C | 94% | 1014.8 hPa | 0 mm | 2.68 m/s, 3° | 53 W/m² | - |
| 1777998447 | 0.56° C | 95% | 1015 hPa | 0 mm | 2.68 m/s, 23° | 60 W/m² | - |
| 1777998144 | 0.56° C | 95% | 1014.9 hPa | 0 mm | 2.68 m/s, 2° | 58 W/m² | - |
| 1777997841 | 0.56° C | 95% | 1014.9 hPa | 0 mm | 1.79 m/s, 30° | 64 W/m² | - |
| 1777997539 | 0.56° C | 94% | 1014.9 hPa | 0 mm | 2.68 m/s, 7° | 59 W/m² | - |
| 1777997236 | 0.56° C | 94% | 1015 hPa | 0 mm | 1.79 m/s, 349° | 67 W/m² | - |
| 1777996933 | 0.56° C | 94% | 1014.9 hPa | 0 mm | 2.24 m/s, 21° | 65 W/m² | - |
| 1777996630 | 0.56° C | 94% | 1014.9 hPa | 0 mm | 2.68 m/s, 12° | 64 W/m² | - |
| 1777996326 | 0.56° C | 94% | 1015.1 hPa | 0 mm | 2.68 m/s, 10° | 38 W/m² | - |
| 1777996022 | 0.56° C | 94% | 1015.1 hPa | 0 mm | 2.24 m/s, 343° | 49 W/m² | - |
| 1777995718 | 0.56° C | 94% | 1015 hPa | 0 mm | 2.68 m/s, 25° | 50 W/m² | - |
| 1777995415 | 0.56° C | 94% | 1015 hPa | 0 mm | 2.68 m/s, 7° | 50 W/m² | - |
| 1777995112 | 0.56° C | 94% | 1015 hPa | 0 mm | 4.02 m/s, 22° | 42 W/m² | - |
| 1777994809 | 0.56° C | 94% | 1015 hPa | 0 mm | 3.13 m/s, 28° | 34 W/m² | - |
| 1777994504 | 0.56° C | 94% | 1014.9 hPa | 0 mm | 2.24 m/s, 23° | 24 W/m² | - |
| 1777994200 | 0.56° C | 94% | 1015 hPa | 0 mm | 3.13 m/s, 3° | 34 W/m² | - |
| 1777993898 | 0.56° C | 95% | 1015.1 hPa | 0 mm | 2.24 m/s, 19° | 26 W/m² | - |
| 1777993594 | 1.11° C | 95% | 1014.9 hPa | 0 mm | 2.68 m/s, 22° | 28 W/m² | - |
| 1777993291 | 0.56° C | 94% | 1014.9 hPa | 0 mm | 2.68 m/s, 334° | 26 W/m² | - |
* Rain latest hour (hover to see other rain measurements)
** Current wind speed in m/s (hover to see current wind gust speed)